www.pogodaiklimat.ru

Погода и климат >> Архив погоды >> Россия >> Чукотка >> 21 км


ПОГОДА на 21 км

  • Прогноз погоды на 21 км
  • Монитор погоды на 21 км

АРХИВ ПОГОДЫ на 21 км

Время (UTC), дата Ветер
(напр.,м/с)
 
Видим.   Явления Облачность Т
(С)
Тd
(С)
f
(%)
Тe
(С)
Тes
(С)
Комфортность P
(гПа)
Po
(гПа)
Тmin
(С)
Tmax
(С)
R
(мм)
R24
(мм)
S
(см)
03 14.09 ЮВ 8-11
{11}
н/о н/о +7.1 -1.2 56 +2 +2 1013.6 993.3
06 14.09 ЮВ 7-10
{12}
н/о н/о +6.7 -0.4 60 +2 +2 1012.4 992.2
09 14.09 В 9-12
{13}
н/о н/о +4.7 -0.8 67 -1 -1 1012.0 991.6 +7.6
12 14.09 ЮВ 12-15
{15}
н/о н/о +5.5 -0.5 65 -1 -1 1010.5 990.2
15 14.09 ЮВ 11-15
{16}
н/о н/о +4.8 -0.3 70 -2 -2 1010.3 989.9
18 14.09 ЮВ 12-16
{17}
н/о н/о +7.3 +0.3 61 +2 +2 1008.7 988.5
21 14.09 ЮВ 12-16
{17}
н/о н/о +7.3 +0.3 61 +2 +2 1008.7 988.5
00 15.09 ЮВ 11-14
{18}
н/о н/о +9.4 +0.9 55 +5 +5 1008.4 988.4
03 15.09 Ю 8-11
{15}
н/о н/о +11.6 +0.5 46 +9 +9 1008.1 988.3
06 15.09 Ю 6
{12}
н/о н/о +9.7 +1.1 55 +7 +7 1008.1 988.2
09 15.09 ЮВ 7 н/о н/о +6.1 -0.0 65 +1 +1 1009.0 988.8 +11.6
12 15.09 В 5 н/о н/о +7.5 +0.2 60 +4 +4 1010.3 990.1
15 15.09 СВ 2 н/о н/о +7.0 -0.5 59 +5 +5 1010.8 990.6
21 15.09 ЮВ 1 н/о н/о +7.7 +0.2 59 +7 +7 1012.9 992.7 +4.9
00 16.09 Ю 1 н/о н/о +9.6 +0.1 52 +10 +10 1013.9 993.8
03 16.09 С 2 н/о н/о +10.2 +1.1 53 +9 +9 1014.6 994.5
06 16.09 В 8-10
{10}
н/о н/о +8.4 -0.0 55 +4 +4 1015.5 995.3
09 16.09 В 7
{11}
н/о н/о +7.3 -2.3 50 +3 +3 1016.4 996.1 +10.7
12 16.09 В 9-12
{14}
н/о н/о +5.0 -1.6 62 -1 -1 1017.5 997.0
21 16.09 В 8-11
{14}
н/о н/о +6.4 -2.5 53 +2 +2 1019.5 999.1
00 17.09 В 8-10
{13}
н/о н/о +9.2 -1.1 48 +5 +5 1019.6 999.4
03 17.09 ЮВ 8-10
{12}
н/о н/о +10.1 -0.5 48 +7 +7 1018.9 998.8
06 17.09 В 9-11
{12}
н/о н/о +7.7 -0.7 55 +3 +3 1018.9 998.5
09 17.09 В 10-12
{13}
н/о н/о -68.1 -71.6 60 -97 -97 опасность
обморожения
1026.6 998.6 +10.3
12 17.09 В 8-11
{12}
н/о н/о 1026.0 998.6
15 17.09 В 7
{11}
н/о н/о 1026.2 998.0
18 17.09 В 6 н/о н/о +4.5 -6.4 45 0 0 1018.1 997.5
21 17.09 СВ 1 н/о н/о 1020.2 997.1
00 18.09 В 1 н/о н/о +7.7 -4.3 42 +8 +8 1016.5 996.2
03 18.09 С 5 н/о н/о +7.4 -4.5 43 +4 +4 1015.0 994.8
06 18.09 СВ 3 н/о н/о 1018.2 994.0
09 18.09 Ю 2
{13}
н/о н/о -41.4 -44.4 72 -51 -51 опасность
обморожения
1018.8 994.2 +8.3
12 18.09 В 3
{10}
н/о н/о 1020.0 995.2
15 18.09 С 7-10
{10}
н/о н/о 1020.7 995.7
18 18.09 С 2
{10}
н/о н/о -40.9 -41.6 93 -50 -50 опасность
обморожения
1020.6 996.0
00 19.09 С 6 н/о н/о -40.4 -42.0 84 -57 -57 опасность
обморожения
1020.3 995.7
03 19.09 С 9-12
{12}
н/о н/о -41.9 -44.5 76 -62 -62 опасность
обморожения
1020.0 995.3
06 19.09 С 10-13
{14}
н/о н/о -40.5 -41.4 91 -61 -61 опасность
обморожения
1019.4 994.8
09 19.09 С 8-11
{14}
н/о н/о -28.7 -29.1 96 -44 -44 опасность
обморожения
1018.7 995.3 -25.4
12 19.09 С 7
{12}
н/о н/о -34.4 -34.6 98 -50 -50 опасность
обморожения
1019.6 995.7
15 19.09 С 8-10
{12}
н/о н/о -37.4 -37.5 99 -55 -55 опасность
обморожения
1020.1 995.8
18 19.09 С 11-14
{14}
н/о н/о -38.5 -38.7 98 -59 -59 опасность
обморожения
1019.3 995.0
00 20.09 С 10-13
{13}
н/о н/о -0.5 -1.2 95 -9 -9 1015.9 995.1
06 20.09 С 6
{12}
н/о н/о -1.5 -1.7 99 -9 -9 1015.6 994.7

 

Местоположение метеостанции 21 км (Чукотка, Россия): широта 69.63 долгота 170.83 высота над уровнем моря 165 м.

В архиве по умолчанию представлена погода на 21 км за последнюю неделю. Архивные данные за месяц целиком и за предыдущие месяцы, начиная с января 2011 года, Вы можете получить, выбрав интересующий диапазон дат из раскрывающегося списка и нажав кнопку "Ввод!".


*Определитесь, кто Вы:
робот инопланетянин человек

Внимание! Время в таблицах - всемирное. Для получения местного времени необходимо прибавить поправку, которая равна 12 ч.

Смотрите также архив погоды в соседних городах и на ближайших метеорологических станциях:

Погода в Певеке (Чукотка, Россия) (26 км)
Погода в Валькаркае (Чукотка, Россия) (50 км)
Погода в Чауне (Чукотка, Россия) (84 км)
Погода в Комсомольской (Чукотка, Россия) (96 км)
Погода на Айон Острове (Чукотка, Россия) (117 км)
Погода в Паляваам-Глубокой (Чукотка, Россия) (139 км)
Погода в Майской (Чукотка, Россия) (158 км)
Погода в Раучуе (Чукотка, Россия) (169 км)
Погода на Мысе Биллингс (Чукотка, Россия) (189 км)
Погода в Билибино (Чукотка, Россия) (250 км)

Пояснения к столбцам:

Ветер - указаны скорость ветра в м/с - средняя за 10 мин, порывы в срок и между сроками (в фигурных скобках) и направление, откуда дует ветер: С - северный, СВ - северо-восточный, В - восточный, ЮВ - юго-восточный, Ю - южный, ЮЗ - юго-западный, З - западный, СЗ - северо-западный.
Видимость - горизонтальная дальность видимости в метрах или километрах. При видимости от 1 до 10 км при отсутствии осадков обычно наблюдается дымка, при ухудшении видимости до 1 км и менее - туман. В сухую погоду видимость может ухудшаться дымом, пылью или мглою.
Явления - указаны атмосферные явления, наблюдавшиеся в срок или в последний час перед сроком; фигурными скобками обозначены явления, наблюдавшиеся между сроками (за 1-3 часа до срока); квадратными скобками обозначены град или гололедные отложения с указанием их диаметра в мм.
Облачность - указаны через наклонную черту общая и нижняя облачность в баллах и высота нижней границы облаков в метрах; квадратными скобками обозначены формы облаков: Ci - перистые, Cs - перисто-слоистые, Cc - перисто-кучевые, Ac - высококучевые, As - высокослоистые, Sc - слоисто-кучевые, Ns - слоисто-дождевые, Cu - кучевые, Cb - кучево-дождевые. Подробнее классификацию облаков см. в Атласе облаков (PDF).
T - Температура воздуха - температура, измеренная на высоте 2 м над землей.
Td - Температура точки росы - температура, при понижении до которой содержащийся в воздухе водяной пар достигнет насыщения.
f - Относительная влажность воздуха - влажноcть воздуха, измеренная на высоте 2 м над землей.
Te - Эффективная температура - температура, которую ощущает одетый по сезону человек в тени. Характеристика душности погоды. При расчете учитывается влияние влажности воздуха и скорости ветра на теплоощущения человека.
Tes - Эффективная температура на солнце - температура, которую ощущает человек, с поправкой на солнечный нагрев. Характеристика знойности погоды. Зависит от высоты солнца над горизонтом, облачности и скорости ветра. Ночью, в пасмурную погоду, а также при ветре 12 м/с и более поправка равна нулю.
P - Атмосферное давление - приведенное к уровню моря атмосферное давление.
Po - Атмосферное давление - измеренное на уровне метеостанции атмосферное давление.
Tmin - Минимальная температура - минимум температуры воздуха на высоте 2 м над землей.
Tmax - Максимальная температура - максимум температуры воздуха на высоте 2 м над землей.
R - Количество осадков - Количество выпавших осадков за период времени, мм. При наведении курсора мыши на число - период времени, за который выпало указанное количество осадков.
R24 - Количество осадков - Количество выпавших осадков за 24 часа, мм.
S - Снежный покров - Высота снежного покрова, см. При наведении курсора мыши на число - состояние снежного покрова и степень покрытия местности в баллах.